Location: La Silve
(44.2414°N, 5.8889°E)
Time: 04:36:10
(UTC+00:00)

CENTAUR R/B - Pass Details

Date: 01 December 2020
Orbit: 750 x 1438 km, 63.4° (Epoch: 11 January)

Event Time Altitude Azimuth Distance (km) Brightness Sun altitude
Rises 19:49:25 0° 244° (WSW) 3,446 6.0 -40.6°
Reaches altitude 10° 19:51:54 10° 252° (WSW) 2,593 5.3 -41.0°
Enters shadow 19:54:58 28° 274° (W) 1,727 4.2 -41.6°
